This is the latest recevied weather packets stored in our database for station/object OK5TVR-5. If no packets are shown the sender has not sent any weather packets the latest 10 day(s).
| Time | Temp. | Humidity | Pressure | Rain* | Wind** | Luminosity | Snow |
|---|---|---|---|---|---|---|---|
| 1788241763 | 15° C | 82% | 1014.1 hPa | 0 mm | - | 35 W/m² | - |
| 1788240863 | 14.44° C | 86% | 1013.9 hPa | 0 mm | - | 21 W/m² | - |
| 1788239963 | 13.89° C | 84% | 1014.1 hPa | 0 mm | - | 19 W/m² | - |
| 1788239063 | 13.33° C | 83% | 1013.9 hPa | 0 mm | - | 9 W/m² | - |
| 1788238163 | 13.33° C | 82% | 1013.8 hPa | 0 mm | - | 7 W/m² | - |
| 1788237263 | 13.33° C | 83% | 1013.7 hPa | 0 mm | - | 3 W/m² | - |
| 1788236363 | 13.89° C | 83% | 1013.7 hPa | 0 mm | - | 1 W/m² | - |
| 1788235463 | 13.33° C | 85% | 1013.7 hPa | 0 mm | - | 0 W/m² | - |
| 1788234563 | 12.78° C | 83% | 1013.9 hPa | 0 mm | - | 0 W/m² | - |
| 1788233663 | 13.33° C | 83% | 1013.6 hPa | 0 mm | - | 0 W/m² | - |
| 1788232774 | 13.33° C | 82% | 1013.4 hPa | 0 mm | - | 0 W/m² | - |
| 1788231864 | 13.89° C | 80% | 1013.5 hPa | 0 mm | - | 0 W/m² | - |
| 1788230963 | 14.44° C | 81% | 1013.2 hPa | 0 mm | - | 0 W/m² | - |
| 1788230063 | 14.44° C | 82% | 1013.2 hPa | 0 mm | - | 0 W/m² | - |
| 1788229163 | 14.44° C | 81% | 1013.4 hPa | 0 mm | - | 0 W/m² | - |
| 1788228263 | 14.44° C | 82% | 1012.9 hPa | 0 mm | - | 0 W/m² | - |
| 1788227363 | 14.44° C | 82% | 1012.9 hPa | 0 mm | - | 0 W/m² | - |
| 1788226463 | 14.44° C | 82% | 1012.8 hPa | 0 mm | - | 0 W/m² | - |
| 1788225563 | 15° C | 79% | 1012.9 hPa | 0 mm | - | 0 W/m² | - |
| 1788224663 | 15.56° C | 76% | 1012.7 hPa | 0 mm | - | 0 W/m² | - |
| 1788223763 | 15.56° C | 78% | 1012.6 hPa | 0 mm | - | 0 W/m² | - |
| 1788222863 | 15.56° C | 80% | 1012.6 hPa | 0 mm | - | 0 W/m² | - |
| 1788221963 | 15.56° C | 80% | 1012.3 hPa | 0 mm | - | 0 W/m² | - |
| 1788221063 | 15.56° C | 78% | 1012.6 hPa | 0 mm | - | 0 W/m² | - |
| 1788220163 | 16.11° C | 74% | 1012.3 hPa | 0 mm | - | 0 W/m² | - |
* Rain latest hour (hover to see other rain measurements)
** Current wind speed in m/s (hover to see current wind gust speed)